Tracking 33404 objects as of 6-Mar-2026
HD Live streaming from Space Station
objects crossing your sky now

COSMOS 595

Track COSMOS 595 now!
10-day predictions
COSMOS 595 is classified as:


NORAD ID: 6852
Int'l Code: 1973-069H
Perigee: 1,404.6 km
Apogee: 1,492.9 km
Inclination: 74.0 °
Period: 114.7 minutes
Semi major axis: 7819 km
RCS: 0.6846 m2 (medium)
Launch date: October 2, 1973
Source: Commonwealth of Independent States (former USSR) (CIS)
Launch site: PLESETSK MISSILE AND SPACE COMPLEX (PKMTR)
Your satellite tracking list
Your tracking list is empty




NASA's NSSDC Master Catalog

Two Line Element Set (TLE):
1 06852U 73069H   26065.30965303  .00000005  00000-0  12972-3 0  9993
2 06852  74.0022 161.2190 0056445 262.6486 153.7898 12.55485556402627
Source of the keplerian elements: AFSPC